Date,TemperatureHighF,TemperatureAvgF,TemperatureLowF,DewpointHighF,DewpointAvgF,DewpointLowF,HumidityHigh,HumidityAvg,HumidityLow,PressureMaxIn,PressureMinIn,WindSpeedMaxMPH,WindSpeedAvgMPH,GustSpeedMaxMPH,PrecipitationSumIn
2013-8-1,72,63,54,59,54,49,89,74,56,29.95,29.82,19,2,19,0.00
2013-8-2,71,62,54,57,54,51,94,75,53,30.00,29.80,17,1,17,0.04
2013-8-3,72,61,51,56,52,48,92,74,47,30.19,30.00,15,1,20,0.00
2013-8-4,71,59,46,56,50,44,94,75,51,30.24,30.03,10,0,11,0.00
2013-8-5,71,61,53,64,58,49,94,89,79,30.04,29.77,8,2,9,1.03
2013-8-6,74,66,61,64,61,58,93,85,60,29.79,29.65,15,2,15,0.10
2013-8-7,72,63,53,60,54,48,94,75,46,30.00,29.69,14,1,14,0.01
2013-8-8,71,59,48,60,54,46,94,82,57,30.03,29.96,24,2,24,0.02
2013-8-9,68,60,52,56,53,49,93,77,54,30.09,29.95,17,2,22,0.00
2013-8-10,72,62,54,59,55,51,91,78,55,30.15,30.07,10,1,13,0.00
2013-8-11,76,62,49,60,54,47,94,77,51,30.10,29.98,9,0,11,0.00
2013-8-12,74,62,49,60,54,46,94,77,54,30.08,29.94,14,1,16,0.00
2013-8-13,67,56,46,54,48,43,94,78,58,30.20,30.07,10,1,11,0.01
2013-8-14,71,57,44,54,48,41,93,75,47,30.22,30.09,15,0,15,0.00
2013-8-15,76,62,48,60,53,46,94,74,46,30.11,30.06,13,1,15,0.00
2013-8-16,80,65,50,62,55,48,94,73,41,30.15,30.10,11,1,14,0.00
2013-8-17,78,66,52,60,56,50,94,73,50,30.19,30.07,21,4,21,0.01
2013-8-18,78,66,52,61,56,50,93,71,48,30.14,29.97,22,4,23,0.00
2013-8-19,80,70,62,68,62,57,86,77,65,30.00,29.87,20,5,21,0.00
2013-8-20,85,75,64,72,67,61,93,79,62,29.91,29.80,18,4,20,0.00
2013-8-21,81,73,63,74,68,60,92,85,67,29.98,29.78,14,2,15,0.12
2013-8-22,78,67,53,60,54,50,91,66,40,30.13,29.98,10,1,13,0.00
2013-8-23,80,64,49,60,53,46,93,71,39,30.17,30.05,14,1,14,0.00
2013-8-24,82,72,62,70,64,58,91,76,61,30.12,29.90,22,4,28,0.00
2013-8-25,90,81,72,76,72,69,90,76,59,29.95,29.85,26,8,26,0.00
2013-8-26,83,76,69,77,72,67,94,88,75,29.98,29.82,26,2,33,2.44
2013-8-27,82,72,66,75,69,65,96,92,74,29.89,29.74,13,1,13,1.47
2013-8-28,82,70,62,71,66,60,95,87,54,30.02,29.88,7,0,8,0.01
2013-8-29,81,71,66,73,68,64,94,90,72,30.01,29.75,17,2,19,0.47
2013-8-30,76,69,59,69,65,57,95,87,68,29.90,29.77,14,2,18,0.01
2013-8-31,80,68,56,68,62,54,95,83,61,29.89,29.66,13,2,14,0.08